Location: *
(38.4303°S, 157.0822°W)
Time: 15:10:56
(UTC+00:00)

Cosmos 2227 - Pass Details

Date: 21 May 2024
Orbit: 832 x 862 km, 71.0° (Epoch: 22 June)

Event Time Altitude Azimuth Distance (km) Brightness Sun altitude
Exits shadow 15:58:57 24° 229° (SW) 1,663 5.2 -17.4°
Maximum altitude 16:01:53 44° 286° (WNW) 1,142 4.5 -16.9°
Drops below altitude 10° 16:07:11 10° 357° (N) 2,445 6.7 -15.9°
Sets 16:09:42 0° 3° (N) 3,373 7.6 -15.4°
